Mount Shasta, CA

6:27 PM PDT on April 28, 2017 (GMT -0700)
Mount Shasta

Weather History for KMHS - September, 2013

Change the Weather History Date:

Tuesday, September 17, 2013

  Actual Average Record
Temperature  
Mean Temperature 58 °F 60 °F  
Max Temperature 69 °F 78 °F 92 °F (1984)
Min Temperature 47 °F 43 °F 25 °F (1965)
Degree Days  
Heating Degree Days 7 6  
Month to date heating degree days 15 70  
Since 1 July heating degree days 27 145  
Cooling Degree Days 0 1  
Month to date cooling degree days 47 18  
Year to date cooling degree days 474 278  
Growing Degree Days 8 (Base 50)    
Moisture  
Dew Point 45 °F    
Average Humidity 68    
Maximum Humidity 86    
Minimum Humidity 45    
Precipitation  
Precipitation 0.04 in 0.02 in 1.43 in (1948)
Month to date precipitation 0.04 0.33  
Year to date precipitation 7.22 27.66  
Sea Level Pressure  
Sea Level Pressure 29.91 in    
Wind  
Wind Speed 5 mph (NNW)    
Max Wind Speed 14 mph    
Max Gust Speed 26 mph    
Visibility 10 miles    
Events Rain    
T = Trace of Precipitation, MM = Missing Value Source: NWS Daily Summary

Daily Weather History Graph

Daily Weather History Graph

Search for Another Location

Airport or City:

Trip Planner

Search our weather history database for the weather conditions in past years. The results will help you decide how hot, cold, wet, or windy it might be!

Date:

Astronomy

Sep. 17, 2013 Rise Set
Actual Time 6:52 AM PDT 7:14 PM PDT
Civil Twilight 6:24 AM PDT 7:42 PM PDT
Nautical Twilight 5:51 AM PDT 8:14 PM PDT
Astronomical Twilight 5:18 AM PDT 8:47 PM PDT
Moon 6:05 PM PDT (9/17) 4:52 AM PDT (9/17)
Length of Visible Light 13h 17m
Length of Day
12h 22m
Waxing Gibbous, 96% of the Moon is Illuminated
Sep 17
Waxing Gibbous
Sep 19
Full
Sep 26
Last Quarter
Oct 4
New
Oct 11
First Quarter

Hourly Weather History & Observations

Time (PDT) Temp. Dew Point Humidity Pressure Visibility Wind Dir Wind Speed Gust Speed Precip Events Conditions
12:56 AM 55.9 °F 44.1 °F 64% 29.82 in 10.0 mi Calm Calm - N/A   Clear
1:56 AM 55.9 °F 43.0 °F 62% 29.82 in 10.0 mi Calm Calm - N/A   Mostly Cloudy
2:56 AM 55.0 °F 43.0 °F 64% 29.82 in 10.0 mi Calm Calm - N/A   Mostly Cloudy
3:56 AM 57.9 °F 43.0 °F 58% 29.79 in 10.0 mi Calm Calm - N/A   Mostly Cloudy
4:56 AM 57.9 °F 44.1 °F 60% 29.80 in 10.0 mi Variable 3.5 mph - N/A   Overcast
5:56 AM 55.9 °F 44.1 °F 64% 29.80 in 10.0 mi Variable 6.9 mph - 0.01 in   Overcast
6:56 AM 55.9 °F 44.1 °F 64% 29.82 in 10.0 mi Variable 6.9 mph - N/A   Overcast
7:56 AM 57.0 °F 45.0 °F 64% 29.83 in 10.0 mi Variable 4.6 mph - N/A   Overcast
8:56 AM 57.0 °F 46.0 °F 67% 29.85 in 10.0 mi Variable 5.8 mph - N/A   Mostly Cloudy
9:56 AM 59.0 °F 46.0 °F 62% 29.85 in 10.0 mi North 8.1 mph - N/A   Overcast
10:56 AM 62.1 °F 46.0 °F 56% 29.86 in 10.0 mi Variable 6.9 mph - N/A   Mostly Cloudy
11:56 AM 68.0 °F 46.0 °F 45% 29.86 in 10.0 mi Variable 6.9 mph - N/A   Mostly Cloudy
12:56 PM 60.1 °F 45.0 °F 57% 29.90 in 10.0 mi North 11.5 mph 26.5 mph 0.00 in   Overcast
1:31 PM 53.6 °F 48.2 °F 82% 29.91 in 5.0 mi Variable 5.8 mph - 0.00 in Rain Light Rain
1:39 PM 57.2 °F 50.0 °F 77% 29.91 in 10.0 mi North 9.2 mph - 0.00 in   Overcast
1:56 PM 57.0 °F 46.9 °F 69% 29.91 in 10.0 mi Variable 5.8 mph 19.6 mph 0.00 in Rain Light Rain
2:56 PM 61.0 °F 45.0 °F 56% 29.93 in 10.0 mi Variable 6.9 mph - 0.00 in   Mostly Cloudy
3:56 PM 55.0 °F 48.0 °F 77% 29.95 in 10.0 mi Variable 6.9 mph - 0.03 in   Scattered Clouds
4:56 PM 57.0 °F 45.0 °F 64% 29.95 in 10.0 mi Variable 4.6 mph - N/A   Scattered Clouds
5:56 PM 53.1 °F 46.9 °F 80% 29.98 in 10.0 mi Variable 6.9 mph - 0.00 in   Mostly Cloudy
6:56 PM 52.0 °F 45.0 °F 77% 30.00 in 10.0 mi NNW 8.1 mph - 0.00 in   Overcast
7:56 PM 50.0 °F 45.0 °F 83% 30.02 in 10.0 mi WNW 5.8 mph - 0.00 in   Partly Cloudy
8:56 PM 48.9 °F 44.1 °F 83% 30.05 in 10.0 mi Variable 4.6 mph - N/A   Clear
9:56 PM 48.9 °F 43.0 °F 80% 30.05 in 10.0 mi Variable 4.6 mph - N/A   Clear
10:56 PM 48.9 °F 42.1 °F 77% 30.04 in 10.0 mi Variable 5.8 mph - N/A   Clear
11:56 PM 48.9 °F 41.0 °F 74% 30.04 in 10.0 mi NNW 5.8 mph - N/A   Clear